Location: *
(43.9900°N, 3.4811°E)
Time: 19:16:44
(UTC+00:00)

H-2A R/B - Pass Details

Date: 25 August 2019
Orbit: 733 x 837 km, 98.3° (Epoch: 17 September)

Event Time Altitude Azimuth Distance (km) Brightness Sun altitude
Exits shadow 19:47:34 - 166° (SSE) 2,570 4.3 -12.9°
Reaches altitude 10° 19:48:18 10° 166° (SSE) 2,275 4.1 -13.0°
Maximum altitude 19:53:18 87° 253° (WSW) 751 1.9 -13.8°
Drops below altitude 10° 19:58:15 10° 346° (NNW) 2,251 5.1 -14.6°
Sets 20:00:32 0° 347° (NNW) 3,174 5.9 -14.9°
